Other Surface Observations
Issued by NWS

Home | Current Version | Previous Version | Text Only | Print | Product List | Glossary On
Versions: 1 2 3 4 5 6 7 8 9 10 11 12 13 14 15 16 17 18 19 20 21 22 23 24 25 26 27 28 29 30 31 32 33 34 35 36 37 38 39 40 41 42 43 44 45 46 47 48 49 50
000
SXUS52 KTAE 082219
OSOTAE
OSOTAE
North Florida/South Alabama/Southwest Georgia Weather Roundup
National Weather Service Tallahassee Florida
500 PM EST THU DEC 08 2016

Note: "fair" indicates few or no clouds below 12,000 feet with no
significant weather and/or obstructions to visibility.

!FLZ017-115-028-034-025-082300
...North Florida...

CITY           SKY/WX    TMP DP  RH WIND       PRES   REMARKS
TALLAHASSEE    CLOUDY    61  40  45 N9        30.21R
APALACHICOLA   PTCLDY    61  44  53 N12       30.20R
PERRY          MOCLDY    62  44  51 N10       30.18F
CROSS CITY     PTCLDY    63  52  67 N3        30.16F
JACKSONVILLE   MOCLDY    62  49  62 NW9       30.16R
$$

!FLZ112-006-005-002-011-082300
...Florida Panhandle...

CITY           SKY/WX    TMP DP  RH WIND       PRES   REMARKS
MARIANNA       PTCLDY    59  37  44 N12       30.23R
BONIFAY        FAIR      56  38  50 N10G21    30.25R
PANAMA CITY NW FAIR      59  39  47 N14       30.22R
TYNDALL AFB    PTCLDY    60  40  48 N10       30.22R
TYND DRONE APT FAIR      60  42  51 N13G29    30.22R
DE FUNIAK SPR  FAIR      55  35  47 N13G21    30.26R
EGLIN AFB      MOCLDY    57  37  46 N14       30.25R
DESTIN         PTCLDY    59  39  47 N10G21    30.25R
HURLBURT       PTCLDY    56  35  45 N16       30.25R
CRESTVIEW      PTCLDY    55  35  47 N9G21     30.28R
PENSACOLA      MOCLDY    54  36  50 N12G20    30.27R
$$

!ALZ063-066-082300
...South Alabama...

CITY           SKY/WX    TMP DP  RH WIND       PRES   REMARKS
DOTHAN         CLOUDY    54  36  50 N12       30.28R
OZARK CAIRNS   CLOUDY    55  33  43 NW10      30.26S
FT RUCKER HELI MOCLDY    55  32  41 N7        30.25S
RUCKER HELI 3  NOT AVBL
RUCKER HELI 2  MOCLDY    56  33  42 N9        30.25R
FLORALA APT    PTCLDY    53  31  42 N7        30.28R
ANDALUSIA      CLEAR     56  27  32 N15G23    30.28R
TROY           CLEAR     51  24  34 N13       30.31R
EUFALA         FAIR      54  24  31 NW8       30.27R
MOBILE         MOCLDY    51  31  46 N13       30.31R
$$

!GAZ120>161-082300
...Southwest and South Central Georgia...

CITY           SKY/WX    TMP DP  RH WIND       PRES   REMARKS
THOMASVILLE    FAIR      59  43  55 N7        30.22S
BAINBRIDGE     PTCLDY    59  39  47 N9        30.23F
MOODY AFB      PTCLDY    59  38  45 NW8       30.18R
VALDOSTA       PTCLDY    59  41  51 N6        30.19R
MOULTRIE       PTCLDY    59  41  51 NW6       30.22R
BLAKELY        CLOUDY    57  32  38 CALM      30.26R
ALBANY         PTCLDY    58  33  39 N10       30.26R
TIFTON         FAIR      57  38  49 N8        30.22R
FITZGERALD     FAIR      59  36  42 N9        30.25R
CORDELE        FAIR      57  27  31 N12       30.26R
AMERICUS       FAIR      54  23  30 N14       30.27R
HOMERVILLE     FAIR      61  43  51 N5        30.20R
$$

!GMZ750-755-770-775-082300
...Coastal and Buoy Obs...

STATION/POSITION TIME  TEMP    WIND        PRES    VSBY  WAVE
                       AIR SEA DIR/SP/G                  HT/PER
                 (UTC) (F)     (DEG/KT/KT) (MB)    (MI)  (FT/S)
KEATON BEACH     2200   62     360/  4/  7 1022.0R
CEDAR KEY        2200   63     320/  7/  9 1021.4R
C TOWER          2200   61      10/ 21/ 23 1022.8R
APALACHICOLA BUO 2150   64 74  350/ 16/ 19 1021.6R         3/ 5
PANAMA CITY BUOY 2150   63 75              1022.9R         4/ 5
MOBILE BUOY      2200   59 75   10/ 21/ 29 1024.8
ORANGE BCH AL BU 2150   55 69   10/ 21/ 25 1024.5R         4/ 4
$$




USA.gov is the U.S. government's official web portal to all federal, state and local government web resources and services.